FENGYUN 1C DEB

Satellite information

Favourite Embed

Satellite Type and Status

DEBRISIN ORBIT

Key statistics

Satellite FENGYUN 1C DEB at a glance.

Uptime

9664

Days in orbit

Revolutions

≈ 14.4

Per day

Orbit

SSO

Sun Synchronous Orbit

Inclination

99.6

Latest

Satellite identification and parameters

Extended collection of information and parameters for FENGYUN 1C DEB.

Object identification

Identified? True

Debris? True

Object name: FENGYUN 1C DEB

International designator: 1999-025DGA

Object number (NORAD): 33689

Object ID (CCSDS): 33689

Country: PEOPLES REPUBLIC OF CHINA (PRC)

Current information (Y/N): Y

RCS size: SMALL

Orbital parameters

Period: 99.684 minutes

Inclination: 99.5667 deg

SMA: 7121.589 km

Apoapsis: 777.39 km

Periapsis: 709.517 km

RAAN: 296.1523 deg

Eccentricy: 0.00476528

Argument of periapsis: 303.5093 deg

Mean anomaly: 74.5705 deg

Mean motion: 14.44566147 rev/day

Mean motion (dot): 0.0000575 rev/day2

B* drag term: 0.0016543489 1/REarth

Two-line elements (TLE)

Creation date: Oct. 22, 2025, 5:40 p.m.

Reference frame: TEME

Reference center: EARTH

Epoch: Oct. 22, 2025, 6:10 a.m. UTC

TLE line 0: 0 FENGYUN 1C DEB

TLE line 1: 1 33689U 99025DGA 25295.25749307 .00005750 00000-0 16543-2 0 9992

TLE line 2: 2 33689 99.5667 296.1523 0047653 303.5093 74.5705 14.44566147687875

Live tracking on map

Real-time ground track for satellite FENGYUN 1C DEB.

In-orbit conjunctions

A list of the most updated potential collisions computed for object FENGYUN 1C DEB.

Target Orbit TCA Probability of collision Miss distance Type
IRIDIUM 33 DEB LEO 2025-10-24 09:57:28 0.0001859248 67.0 (m) DEBRIS
SL-18 R/B LEO 2025-04-10 09:13:59 0.0001065472 208.0 (m) ROCKET BODY

Associated space launch

Chinese polar orbiting meteorological satellite

FENGYUN 1C DEB was lifted into orbit during the mission ‘Long March 4B | Feng Yun 1C’, on board a Long March 4B space rocket.

The launch took place on May 10, 1999, 1:33 a.m. from Launch Complex 7.

For more information about the launch, click the button.

Launch to space Long March 4B | Feng Yun 1C
Long March 4B | Feng Yun 1C

Agency: N/A

Status: Launch Successful

Launch date: May 10, 1999, 1:33 a.m. UTC

Rocket: Long March 4B

Launch pad: Launch Complex 7

Location: Taiyuan Satellite Launch Center, People's Republic of China

...

Latest news about this satellite

There are no fresh news available about this satellite. Check back as we update our databases every day.


Newsletter sign-up

Weekly statistics, charts and insights to help you stay on top of the space industry.